Regional Weather Roundup
Issued by NWS Newport/Morehead, NC

Current Version | Previous Version | Graphics & Text | Print | Product List | Glossary Off
Versions: 1 2 3 4 5 6 7 8 9 10 11 12 13 14 15 16 17 18 19 20 21 22 23 24 25 26 27 28 29 30 31 32 33 34 35 36 37 38 39 40 41 42 43 44 45 46 47 48 49 50

000
ASUS42 KMHX 221614
RWRMHX
WEATHER ROUNDUP FOR EASTERN NORTH CAROLINA
NATIONAL WEATHER SERVICE NEWPORT/MOREHEAD CITY NC
1100 AM EST WED NOV 22 2017

NOTE: "FAIR" INDICATES FEW OR NO CLOUDS BELOW 12,000 FEET
WITH NO SIGNIFICANT WEATHER AND/OR OBSTRUCTIONS TO VISIBILITY

NCZ015>017-031-032-045>047-102-103-221700-
NORTH COAST

CITY           SKY/WX    TMP DP  RH WIND       PRES   REMARKS
EDENTON        CLOUDY    63  56  79 CALM      29.96R
ELIZABETH CITY CLOUDY    65  60  84 NW10      29.94R
KITTY HAWK     PTSUNNY  N/A N/A N/A CALM      29.91S
MANTEO         PTSUNNY   59  57  92 NW9       29.93S

$$

NCZ045>047-081-094-103-104-221700-
CENTRAL COAST

CITY           SKY/WX    TMP DP  RH WIND       PRES   REMARKS
FRISCO         CLOUDY    60  60 100 VRB5      29.93S

$$

NCZ095-097-098-100-101-221700-
SOUTHERN COAST

CITY           SKY/WX    TMP DP  RH WIND       PRES   REMARKS
BEAUFORT       CLOUDY    65  59  81 N14       29.95S
CEDAR ISLAND   NOT AVBL
JACKSONVILLE   PTSUNNY   65  58  78 NW13      29.97R
PINEY ISLAND   NOT AVBL
WILMINGTON     PTSUNNY   66  58  75 NW14      29.99R


$$

NCZ011>013-027>030-043-044-078>080-089-090>093-098-221700-
COASTAL PLAIN

CITY           SKY/WX    TMP DP  RH WIND       PRES   REMARKS
AHOSKIE        CLOUDY    58  54  87 CALM      29.97R
CLINTON        SUNNY     65  53  66 N7        30.00S
ELIZABETHTOWN  NOT AVBL
GOLDSBORO      SUNNY     66  50  57 N9        29.97S
GREENVILLE     MOSUNNY   61  52  72 N9        29.99F
HAVELOCK       CLOUDY    64  59  83 N16       29.97R
KENANSVILLE    MOSUNNY   64  52  63 N13G18    29.99S
KINSTON        NOT AVBL
NEW BERN       PTSUNNY   62  57  83 NW10      29.97S
RICHLANDS      MOSUNNY   64  55  72 N9        29.98S
ROCKY MOUNT    MOSUNNY   60  50  69 NW12      29.99S
WASHINGTON     CLOUDY    62  55  76 NW5G17    29.97S
WHITEVILLE     MOSUNNY   65  55  69 NW3       30.01R

$$

AMZ130-135-150-152-154-156-158-170-250-252-270-ANZ085-086-088-633-658-670-221700-
MARINE OBSERVATIONS

STATION/POSITION TIME  TEMP    WIND        PRES    WAVE   SWELL
                       AIR SEA DIR/SP/G            HT/PER HT/PER
                 (UTC) (F)     (DEG/KT/KT) (MB)    (FT/S) (FT/S)
CHESAPEAKE LIGHT NOT AVBL
64 E VA BEACH    1550   60 62  320/ 21/ 25 1012.4    5/ 8
DUCK             1548   60 60  330/ 13/ 17 1012.7
2 E DUCK         1600      61                N/A     4/ 8
OREGON INLET     1542   58 56  300/ 10/ 13 1013.3
13E OREGON INLT  1548      64                N/A     5/ 8   5/ 8
HATTERAS CG      1548   59 60  280/ 12/ 13 1013.3
DIAMOND BUOY     1550   63 75  300/ 14/ 19 1013.5    6/ 7   5/ 7
CAPE LOOKOUT     1600          300/  8/  9 1014.4
BEAUFORT LAB     1548   62 60  340/  6/  9 1013.9
30 SE NEW RVR IN 1508   65 67  290/ 10/ 14 1014.2
30 SE NEW RVR IN 1600      67                N/A     5/ 8
27 SE WRIGHTSVLE 1508   63 68  300/ 12/ 17 1014.4
5 SE WRIGHTSVLE  1508   61 64  320/ 10/ 14 1014.7
225 S CAPE HAT   1550   73 76  320/ 14/ 17 1012.9    8/ 9   7/ 9
41 SE CHARLESTON 1550   66 74  350/ 17/ 21 1015.4    4/ 8   3/ 8

$$




USA.gov is the U.S. government's official web portal to all federal, state and local government web resources and services.